1498302000.17,13255,19.38,74168.8,23.47,-10.57,-13.97,0,*40
1498302001.4,13256,19.38,74170.0,23.37,-10.35,-13.69,0,*41
1498302002.67,13257,19.38,74168.5,23.33,-8.51,-11.81,0,*7B
1498302003.89,13258,19.38,74168.0,23.27,-8.81,-12.25,0,*71
1498302005.14,13259,19.38,74168.0,23.23,-7.95,-11.51,0,*7E
1498302006.36,13260,19.38,74170.5,23.19,-7.35,-11.01,0,*72
1498302007.61,13261,19.38,74170.8,23.17,-7.01,-10.89,0,*7B
1498302008.84,13262,19.38,74170.0,23.11,-6.51,-10.57,0,*79
1498302010.04,13263,19.38,74166.5,23.09,-6.01,-10.31,0,*74
1498302011.26,13264,19.38,74170.0,23.05,-5.73,-10.23,0,*7A
1498302012.51,13265,19.38,74174.0,22.99,-6.05,-10.63,0,*79
1498302013.74,13266,19.38,74168.3,22.97,-5.69,-10.53,0,*7E
1498302014.94,13267,19.38,74168.0,22.93,-5.97,-11.11,0,*7D
1498302016.17,13268,19.38,74172.5,22.93,-5.77,-10.97,0,*73
1498302017.44,13269,19.38,74172.3,22.87,-6.19,-11.73,0,*77
1498302018.64,13270,19.38,74170.8,22.83,-7.19,-13.07,0,*7B
1498302019.87,13271,19.38,74174.3,22.75,-7.43,-13.51,0,*7F
1498302021.08,13272,19.38,74168.8,22.71,-8.17,-14.43,0,*72
1498302022.33,13273,19.38,74172.3,22.65,-7.53,-13.83,0,*72
1498302023.6,13274,19.38,74172.5,22.61,-7.43,-13.97,0,*75
1498302024.85,13275,19.38,74170.3,22.53,-6.89,-13.37,0,*78
1498302026.07,13276,19.38,74172.5,22.51,-5.81,-12.25,0,*70
1498302027.32,13277,19.38,74172.5,22.49,-6.55,-13.33,0,*74
1498302028.52,13278,19.38,74174.8,22.43,-6.69,-13.55,0,*7E
1498302029.76,13279,19.38,74174.5,22.37,-7.01,-14.19,0,*7C
1498302030.98,13280,19.38,74172.0,22.35,-6.69,-13.97,0,*76
1498302032.21,13281,19.38,74168.8,22.31,-5.55,-12.83,0,*7B
1498302033.47,13282,19.38,74172.0,22.27,-5.27,-12.71,0,*77
1498302034.69,13283,19.38,74168.3,22.27,-4.99,-12.53,0,*72
1498302035.93,13284,19.38,74168.8,22.25,-4.69,-12.25,0,*79
1498302037.21,13285,19.38,74172.3,22.25,-4.01,-11.51,0,*76
1498302038.44,13286,19.38,74172.5,22.25,-3.39,-11.11,0,*7D
1498302039.66,13287,19.38,74172.3,22.21,-3.35,-11.19,0,*7C
1498302040.91,13288,19.38,74172.5,22.21,-3.47,-11.19,0,*76
1498302042.13,13289,19.38,74172.0,22.21,-3.23,-11.01,0,*7C
1498302043.39,13290,19.38,74170.5,22.25,-3.39,-11.29,0,*71
1498302044.64,13291,19.38,74174.5,22.25,-2.55,-10.45,0,*70
1498302045.86,13292,19.38,74172.3,22.25,-2.39,-10.27,0,*7D
1498302047.08,13293,19.38,74170.5,22.29,-2.87,-10.93,0,*7A
1498302048.33,13294,19.38,74174.0,22.27,-3.63,-11.81,0,*7A
1498302049.6,13295,19.38,74174.5,22.29,-3.59,-11.93,0,*7F
1498302050.86,13296,19.38,74170.0,22.29,-3.95,-12.35,0,*73
1498302052.09,13297,19.38,74170.8,22.27,-3.75,-12.35,0,*72
1498302053.34,13298,19.38,74172.0,22.27,-2.67,-11.37,0,*7E
1498302054.56,13299,19.38,74174.8,22.27,-2.43,-11.29,0,*76
1498302055.81,13300,19.38,74172.8,22.29,-2.31,-11.37,0,*73
1498302057.07,13301,19.38,74170.0,22.29,-2.11,-11.37,0,*70
1498302058.33,13302,19.38,74172.5,22.33,-3.95,-13.97,0,*7D
1498302059.53,13303,19.38,74172.3,22.27,-4.05,-14.19,0,*76
1498302060.8,13304,19.38,74172.0,22.29,-3.63,-14.05,0,*75
1498302062.0,13305,19.38,74170.5,22.27,-2.95,-13.47,0,*73
1498302063.26,13306,19.38,74172.0,22.27,-2.11,-12.79,0,*70
1498302064.49,13307,19.38,74170.3,22.27,-1.75,-12.71,0,*78
1498302065.74,13308,19.38,74168.3,22.27,-1.35,-12.53,0,*73
1498302066.94,13309,19.38,74168.5,22.27,-0.73,-12.21,0,*44
1498302068.15,13310,19.38,74170.3,22.29,-0.61,-12.47,0,*41
1498302069.4,13311,19.38,74168.8,22.29,0.37,-11.51,0,*6A
1498302070.61,13312,19.38,74170.5,22.31,0.91,-11.19,0,*60
1498302071.84,13313,19.38,74170.8,22.33,0.43,-11.85,0,*69
1498302073.08,13314,19.38,74174.0,22.33,0.09,-12.53,0,*58
1498302074.29,13315,19.38,74174.8,22.35,-0.81,-13.79,0,*4B
1498302075.51,13316,19.38,74168.0,22.37,-1.21,-14.37,0,*7C
1498302076.71,13317,19.38,74174.0,22.35,-2.39,-15.95,0,*7C
1498302077.91,13318,19.38,74174.0,22.35,-2.31,-15.95,0,*7B
1498302079.18,13319,19.38,74174.5,22.33,-2.59,-16.31,0,*7F
1498302080.43,13320,19.38,74172.3,22.31,-3.59,-17.79,0,*7B
1498302081.64,13321,19.38,74172.0,22.27,-4.69,-18.99,0,*78
1498302082.91,13322,19.38,74172.8,22.21,-4.85,-19.31,0,*7C
1498302084.18,13323,19.38,74170.8,22.15,-3.51,-17.59,0,*74
1498302085.44,13324,19.38,74172.5,22.15,-3.87,-18.31,0,*79
1498302086.71,13325,19.38,74170.0,22.11,-5.27,-19.81,0,*7A
1498302087.9,13326,19.38,74168.8,22.05,-5.39,-19.75,0,*78
1498302089.17,13327,19.38,74168.8,21.99,-5.27,-19.23,0,*73
1498302090.44,13328,19.38,74176.3,21.95,-4.69,-18.55,0,*7B
1498302091.66,13329,19.38,74168.3,21.93,-4.33,-17.93,0,*76
1498302092.89,13330,19.38,74170.3,21.91,-4.53,-17.83,0,*7B
1498302094.1,13331,19.38,74172.5,21.87,-3.91,-16.93,0,*74
1498302095.34,13332,19.38,74168.3,21.85,-3.67,-16.89,0,*77
1498302096.57,13333,19.38,74172.0,21.83,-4.01,-16.93,0,*7C
1498302097.8,13334,19.38,74172.3,21.79,-3.03,-15.81,0,*7B
1498302099.02,13335,19.38,74170.8,21.75,-2.55,-15.07,0,*7A
1498302100.29,13336,19.38,74168.0,21.73,-2.67,-15.21,0,*7A
1498302101.53,13337,19.38,74172.3,21.69,-2.27,-14.75,0,*74
1498302102.78,13338,19.38,74168.3,21.69,-1.59,-13.61,0,*73
1498302104.01,13339,19.38,74172.0,21.65,-1.21,-13.11,0,*76
1498302105.28,13340,19.38,74172.3,21.65,-0.93,-12.71,0,*47
1498302106.5,13341,19.38,74170.3,21.65,-0.69,-12.39,0,*4F
1498302107.74,13342,19.38,74170.0,21.65,-0.65,-12.11,0,*4A
1498302108.98,13343,19.38,74166.3,21.61,-0.33,-11.59,0,*43
1498302110.22,13344,19.38,74168.0,21.61,0.01,-11.07,0,*53
1498302111.45,13345,19.38,74170.8,21.61,0.29,-10.53,0,*68
1498302112.7,13346,19.38,74172.3,21.59,0.13,-10.67,0,*6E
1498302113.91,13347,19.38,74172.0,21.57,0.43,-10.31,0,*67
1498302115.15,13348,19.38,74170.3,21.57,1.05,-9.61,0,*66
1498302116.34,13349,19.38,74168.3,21.53,1.41,-9.27,0,*61
1498302117.57,13350,19.38,74168.0,21.53,1.89,-8.81,0,*60
1498302118.84,13351,19.38,74170.8,21.51,1.63,-9.15,0,*6B
1498302120.02,13352,19.38,74172.0,21.53,2.35,-8.33,0,*6F
1498302121.26,13353,19.38,74170.5,21.51,2.05,-8.97,0,*61
1498302122.51,13354,19.38,74168.8,21.51,2.91,-8.07,0,*62
1498302123.78,13355,19.38,74168.0,21.51,2.05,-9.11,0,*68
1498302124.99,13356,19.38,74166.3,21.51,1.75,-9.31,0,*6D
1498302126.19,13357,19.38,74168.0,21.49,2.39,-8.67,0,*6C
1498302127.44,13358,19.38,74168.0,21.47,2.51,-8.63,0,*67
1498302128.72,13359,19.38,74168.5,21.47,3.67,-7.01,0,*69
1498302129.97,13360,19.38,74166.5,21.47,4.37,-6.27,0,*64
1498302131.19,13361,19.38,74170.3,21.47,4.53,-6.13,0,*60
1498302132.38,13362,19.38,74168.5,21.49,4.27,-6.35,0,*6A
1498302133.62,13363,19.38,74166.8,21.49,4.75,-5.31,0,*6B
1498302134.9,13364,19.38,74170.3,21.47,4.79,-5.31,0,*6E
1498302136.15,13365,19.38,74168.0,21.51,4.11,-5.93,0,*6E
1498302137.39,13366,19.38,74168.5,21.49,4.79,-4.81,0,*68
1498302138.6,13367,19.38,74170.5,21.49,5.55,-3.75,0,*6A
1498302139.83,13368,19.38,74168.8,21.51,5.41,-3.63,0,*6E
1498302141.06,13369,19.38,74170.0,21.51,5.49,-3.47,0,*61
1498302142.26,13370,19.38,74168.8,21.51,5.29,-3.35,0,*6A
1498302143.47,13371,19.38,74168.3,21.53,5.77,-2.19,0,*6D
1498302144.71,13372,19.38,74166.5,21.53,5.27,-2.55,0,*63
1498302145.93,13373,19.38,74170.0,21.53,5.19,-2.07,0,*68
1498302147.14,13374,19.38,74166.3,21.53,5.55,-1.79,0,*6D
1498302148.35,13375,19.38,74168.0,21.53,5.63,-1.95,0,*6B
1498302149.55,13376,19.38,74164.8,21.53,5.55,-2.27,0,*67
1498302150.8,13377,19.38,74170.8,21.57,5.11,-2.67,0,*66
1498302152.04,13378,19.38,74168.8,21.59,5.89,-1.87,0,*6B
1498302153.24,13379,19.38,74170.0,21.59,6.03,-1.63,0,*61
1498302154.46,13380,19.38,74164.3,21.63,8.15,0.83,0,*75
1498302155.66,13381,19.38,74166.5,21.67,7.97,0.71,0,*78
1498302156.86,13382,19.38,74166.5,21.71,7.37,0.33,0,*70
1498302158.07,13383,19.38,74164.8,21.75,7.87,0.95,0,*72
1498302159.3,13384,19.38,74170.0,21.81,7.83,1.01,0,*46
1498302160.56,13385,19.38,74162.5,21.85,7.61,0.91,0,*77
1498302161.76,13386,19.38,74164.5,21.89,7.51,1.09,0,*4B
1498302162.98,13387,19.38,74166.0,21.93,5.89,-0.57,0,*51
1498302164.19,13388,19.38,74166.3,21.95,6.25,-0.07,0,*68
1498302165.44,13389,19.38,74166.3,21.99,6.39,0.13,0,*70
1498302166.7,13390,19.38,74162.8,22.07,6.65,0.33,0,*77
1498302167.9,13391,19.38,74164.3,22.07,6.93,0.43,0,*78
1498302169.13,13392,19.38,74162.5,22.15,6.39,-0.29,0,*59
1498302170.35,13393,19.38,74166.5,22.19,7.01,0.17,0,*7E
1498302171.56,13394,19.38,74164.3,22.25,5.71,-1.51,0,*6D
1498302172.77,13395,19.38,74164.8,22.29,5.63,-1.71,0,*61
1498302174.0,13396,19.38,74166.5,22.31,6.57,-0.85,0,*55
1498302175.25,13397,19.38,74166.5,22.37,6.73,-0.97,0,*57
1498302176.5,13398,19.38,74164.8,22.41,6.21,-1.47,0,*62
1498302177.71,13399,19.38,74166.3,22.47,6.13,-1.29,0,*6C
1498302178.91,13400,19.38,74164.5,22.47,6.03,-1.25,0,*66
1498302180.11,13401,19.38,74166.3,22.49,4.81,-2.43,0,*62
1498302181.33,13402,19.38,74168.0,22.53,3.93,-2.95,0,*65
1498302182.52,13403,19.38,74162.5,22.55,4.07,-2.39,0,*6E
1498302183.73,13404,19.38,74166.5,22.55,4.23,-1.87,0,*69
1498302184.97,13405,19.38,74166.0,22.59,6.51,0.55,0,*70
1498302186.17,13406,19.38,74164.5,22.63,6.75,0.71,0,*7A
1498302187.44,13407,19.38,74166.0,22.73,4.97,-1.83,0,*65
1498302188.65,13408,19.38,74162.3,22.77,5.29,-1.71,0,*67
1498302189.83,13409,19.38,74164.3,22.83,4.07,-3.31,0,*66
1498302191.04,13410,19.38,74166.5,22.83,4.05,-3.23,0,*6F
1498302192.25,13411,19.38,74166.5,22.87,4.81,-1.59,0,*69
1498302193.44,13412,19.38,74166.5,22.89,4.23,-2.19,0,*6B
1498302194.67,13413,19.38,74166.8,22.95,4.57,-1.87,0,*60
1498302195.93,13414,19.38,74166.5,22.99,4.01,-2.71,0,*62
1498302197.14,13415,19.38,74166.3,23.01,3.37,-3.15,0,*62
1498302198.36,13416,19.38,74166.8,23.03,4.45,-1.95,0,*6B
1498302199.58,13417,19.38,74166.3,23.07,4.15,-2.35,0,*62
1498302200.82,13418,19.38,74164.8,23.07,3.15,-3.11,0,*6D
1498302202.07,13419,19.38,74162.3,23.11,2.39,-3.63,0,*61
1498302203.3,13420,19.38,74164.8,23.11,1.93,-4.17,0,*6C
1498302204.5,13421,19.38,74168.0,23.11,2.27,-3.79,0,*6E
1498302205.69,13422,19.38,74166.3,23.09,2.99,-2.95,0,*62
1498302206.95,13423,19.38,74170.0,23.15,2.17,-3.51,0,*61
1498302208.2,13424,19.38,74164.3,23.15,1.33,-4.29,0,*6B
1498302209.46,13425,19.38,74168.8,23.11,0.55,-4.81,0,*5D
1498302210.67,13426,19.38,74166.0,23.09,0.91,-4.21,0,*55
1498302211.9,13427,19.38,74170.0,23.11,1.05,-3.67,0,*64
1498302213.11,13428,19.38,74164.0,23.11,1.41,-3.27,0,*6F
1498302214.35,13429,19.38,74168.8,23.11,0.67,-3.43,0,*59
1498302215.61,13430,19.38,74170.0,23.15,1.47,-2.47,0,*63
1498302216.87,13431,19.38,74164.0,23.17,1.47,-2.11,0,*63
1498302218.08,13432,19.38,74170.8,23.19,0.41,-3.27,0,*5D
1498302219.27,13433,19.38,74168.8,23.19,-0.65,-4.45,0,*74
1498302220.47,13434,19.38,74168.3,23.19,-1.21,-4.99,0,*43
1498302221.66,13435,19.38,74170.8,23.19,-1.55,-5.39,0,*4A
1498302222.91,13436,19.38,74168.3,23.21,-2.63,-6.55,0,*4D
1498302224.13,13437,19.38,74170.0,23.15,-2.83,-6.73,0,*41
1498302225.4,13438,19.38,74168.3,23.15,-1.09,-5.07,0,*4F
1498302226.65,13439,19.38,74168.0,23.17,-0.81,-5.03,0,*79
1498302227.92,13440,19.38,74166.5,23.17,-0.97,-5.27,0,*76
1498302229.15,13441,19.38,74166.0,23.17,0.41,-3.87,0,*5D
1498302230.37,13442,19.38,74170.5,23.19,1.17,-3.27,0,*68
1498302231.58,13443,19.38,74170.8,23.19,0.33,-4.29,0,*57
1498302232.79,13444,19.38,74168.3,23.19,1.05,-3.71,0,*6E
1498302234.05,13445,19.38,74170.3,23.21,0.17,-5.07,0,*51
1498302235.27,13446,19.38,74170.8,23.19,-0.33,-5.89,0,*74
1498302236.48,13447,19.38,74168.0,23.19,-0.27,-6.01,0,*73
1498302237.69,13448,19.38,74166.5,23.17,-0.61,-6.81,0,*78
1498302238.94,13449,19.38,74170.8,23.15,0.21,-6.23,0,*5A
1498302240.2,13450,19.38,74168.8,23.15,1.43,-5.19,0,*6D
1498302241.45,13451,19.38,74170.5,23.15,0.95,-6.23,0,*5C
1498302242.7,13452,19.38,74170.5,23.11,0.29,-7.69,0,*53
1498302243.91,13453,19.38,74172.3,23.09,-0.89,-9.05,0,*78
1498302245.17,13454,19.38,74170.5,23.03,-0.85,-9.41,0,*79
1498302246.41,13455,19.38,74170.3,22.99,-0.85,-9.97,0,*71
1498302247.61,13456,19.38,74170.5,22.97,-1.51,-10.97,0,*7C
1498302248.89,13457,19.38,74170.3,22.87,-1.09,-10.67,0,*7E
1498302250.11,13458,19.38,74172.3,22.83,-1.67,-12.07,0,*79
1498302251.35,13459,19.38,74170.3,22.79,-1.35,-12.07,0,*7A
1498302252.57,13460,19.38,74170.0,22.75,-0.77,-11.55,0,*4F
1498302253.79,13461,19.38,74174.0,22.71,-0.81,-11.85,0,*4E
1498302255.02,13462,19.38,74170.8,22.65,0.97,-10.27,0,*6B
1498302256.3,13463,19.38,74172.0,22.65,1.09,-10.41,0,*5C
1498302257.53,13464,19.38,74172.3,22.61,0.05,-11.73,0,*52
1498302258.75,13465,19.38,74168.8,22.59,0.79,-11.23,0,*66
1498302260.03,13466,19.38,74172.8,22.57,1.37,-10.63,0,*55
1498302261.29,13467,19.38,74174.0,22.57,3.67,-7.91,0,*68
1498302262.5,13468,19.38,74174.8,22.55,3.49,-8.63,0,*6B
1498302263.71,13469,19.38,74168.3,22.55,3.23,-9.05,0,*67
1498302264.96,13470,19.38,74168.5,22.57,4.59,-7.11,0,*6C
1498302266.2,13471,19.38,74172.0,22.61,4.53,-7.73,0,*66
1498302267.38,13472,19.38,74172.0,22.63,3.89,-8.55,0,*6C
1498302268.55,13473,19.38,74170.8,22.63,3.85,-8.55,0,*61
1498302269.79,13474,19.44,74174.3,22.65,3.75,-8.75,0,*6D
1498302270.97,13475,19.38,74170.3,22.67,3.29,-9.31,0,*66
1498302272.22,13476,19.38,74174.8,22.67,2.21,-10.75,0,*54
1498302273.44,13477,19.38,74174.8,22.67,2.05,-10.89,0,*50
1498302274.66,13478,19.38,74172.8,22.67,2.43,-10.49,0,*51
1498302275.89,13479,19.38,74174.0,22.67,2.55,-10.35,0,*5C
1498302277.1,13480,19.38,74172.3,22.67,2.81,-9.97,0,*63
1498302278.35,13481,19.38,74174.0,22.73,2.81,-9.93,0,*63
1498302279.58,13482,19.38,74174.8,22.73,2.85,-9.75,0,*6C
1498302280.8,13483,19.38,74172.5,22.75,4.27,-7.99,0,*69
1498302282.0,13484,19.38,74172.3,22.79,3.71,-8.59,0,*65
1498302283.26,13485,19.38,74172.5,22.81,3.45,-8.81,0,*61
1498302284.45,13486,19.38,74170.0,22.85,3.89,-8.21,0,*6C
1498302285.7,13487,19.38,74172.8,22.85,4.31,-7.57,0,*67
1498302286.93,13488,19.38,74172.8,22.93,4.67,-7.27,0,*6B
1498302288.14,13489,19.38,74172.5,22.95,3.25,-8.93,0,*6D
1498302289.36,13490,19.38,74174.8,22.97,2.21,-10.23,0,*50
1498302290.6,13491,19.38,74176.5,22.99,2.13,-10.23,0,*5E
1498302291.85,13492,19.38,74172.8,22.99,2.13,-10.35,0,*5A
1498302293.09,13493,19.44,74174.3,22.99,1.47,-11.19,0,*56
1498302294.34,13494,19.38,74172.0,22.99,-0.19,-13.29,0,*47
1498302295.52,13495,19.44,74174.8,22.97,-0.61,-13.65,0,*4F
1498302296.72,13496,19.38,74172.8,22.97,-0.11,-13.15,0,*4C
1498302297.92,13497,19.38,74172.8,22.93,0.43,-12.53,0,*60
1498302299.18,13498,19.38,74174.3,22.93,-1.39,-14.83,0,*75
1498302300.44,13499,19.38,74174.0,22.87,-2.11,-15.49,0,*7F
1498302301.68,13500,19.44,74174.5,22.83,-2.51,-16.23,0,*71
1498302302.93,13501,19.44,74174.8,22.79,-3.59,-17.45,0,*7D
1498302304.22,13502,19.44,74176.3,22.77,-4.01,-17.97,0,*75
1498302305.45,13503,19.44,74174.8,22.71,-3.79,-17.79,0,*7A
1498302306.71,13504,19.38,74170.8,22.65,-4.77,-18.93,0,*7A
1498302307.91,13505,19.44,74172.3,22.59,-3.19,-16.97,0,*71
1498302309.15,13506,19.44,74174.5,22.57,-2.75,-16.45,0,*78
1498302310.41,13507,19.38,74170.8,22.53,-1.91,-15.53,0,*70
1498302311.63,13508,19.38,74172.8,22.53,-2.79,-16.59,0,*73
1498302312.85,13509,19.38,74172.5,22.49,-4.45,-18.69,0,*7D
1498302314.05,13510,19.38,74172.3,22.43,-5.47,-19.75,0,*70
1498302315.28,13511,19.44,74174.8,22.37,-3.75,-17.87,0,*76
1498302316.48,13512,19.38,74170.0,22.35,-5.51,-19.99,0,*76
1498302317.72,13513,19.44,74174.8,22.31,-5.93,-20.43,0,*70
1498302318.99,13514,19.44,74174.8,22.25,-5.11,-19.27,0,*70
1498302320.21,13515,19.38,74172.8,22.19,-3.83,-17.69,0,*77
1498302321.45,13516,19.38,74170.5,22.17,-3.83,-17.59,0,*79
1498302322.68,13517,19.44,74174.8,22.15,-4.81,-18.79,0,*72
1498302323.87,13518,19.38,74170.3,22.13,-4.37,-18.11,0,*78
1498302325.15,13519,19.38,74170.0,22.11,-3.71,-17.25,0,*76
1498302326.34,13520,19.44,74174.0,22.09,-3.19,-16.45,0,*7C
1498302327.6,13521,19.38,74172.5,22.11,-4.01,-17.35,0,*7C
1498302328.87,13522,19.38,74172.3,22.07,-3.51,-16.51,0,*79
1498302330.09,13523,19.44,74174.8,22.07,-2.91,-15.67,0,*73
1498302331.34,13524,19.44,74174.3,22.07,-3.43,-15.99,0,*7B
1498302332.53,13525,19.38,74172.5,22.09,-3.23,-15.67,0,*73
1498302333.76,13526,19.38,74168.8,22.09,-3.59,-16.03,0,*7C
1498302335.0,13527,19.38,74168.0,22.09,-2.59,-14.55,0,*7D
1498302336.25,13528,19.44,74174.0,22.11,-1.55,-13.01,0,*72
1498302337.49,13529,19.44,74174.5,22.15,-2.23,-13.61,0,*73
1498302338.69,13530,19.44,74172.5,22.17,-1.21,-12.21,0,*7D
1498302339.97,13531,19.44,74172.8,22.21,-1.09,-11.89,0,*72
1498302341.19,13532,19.44,74172.0,22.25,-2.35,-13.11,0,*7A
1498302342.39,13533,19.38,74172.3,22.31,-1.71,-12.29,0,*77
1498302343.61,13534,19.44,74174.0,22.33,-2.79,-13.23,0,*72
1498302344.86,13535,19.38,74168.0,22.33,-1.71,-11.77,0,*7B
1498302346.12,13536,19.44,74172.8,22.41,0.51,-9.15,0,*5E
1498302347.32,13537,19.38,74170.3,22.47,-1.21,-10.93,0,*74
1498302348.54,13538,19.44,74172.3,22.51,-0.97,-10.53,0,*4C
1498302349.75,13539,19.44,74174.0,22.59,-0.29,-9.41,0,*7B
1498302350.98,13540,19.44,74174.0,22.65,0.51,-8.45,0,*5D
1498302352.16,13541,19.44,74170.8,22.71,-0.07,-8.93,0,*4C
1498302353.4,13542,19.44,74174.0,22.77,-0.97,-9.71,0,*7D
1498302354.6,13543,19.44,74174.0,22.81,-0.07,-8.67,0,*4A
1498302355.8,13544,19.38,74166.5,22.89,0.43,-7.91,0,*5E
1498302357.03,13545,19.44,74172.3,22.95,-0.15,-8.51,0,*7F
1498302358.23,13546,19.38,74170.5,23.03,-0.61,-9.19,0,*7C
1498302359.47,13547,19.44,74170.8,23.07,-1.35,-9.71,0,*47
1498302360.71,13548,19.44,74170.3,23.09,-0.89,-9.37,0,*72
1498302361.95,13549,19.44,74172.3,23.17,-0.49,-9.11,0,*74
1498302363.18,13550,19.38,74168.8,23.21,-1.51,-10.27,0,*7C
1498302364.41,13551,19.44,74174.8,23.25,-2.23,-10.89,0,*7B
1498302365.65,13552,19.44,74168.8,23.29,-3.07,-11.81,0,*7A
1498302366.88,13553,19.38,74170.8,23.29,-1.75,-10.45,0,*75
1498302368.09,13554,19.38,74168.5,23.31,-3.35,-12.39,0,*74
1498302369.33,13555,19.44,74172.8,23.33,-2.59,-11.41,0,*70
1498302370.59,13556,19.44,74172.0,23.37,-1.59,-10.41,0,*75
1498302371.8,13557,19.44,74172.3,23.41,-0.53,-9.05,0,*76
1498302372.99,13558,19.44,74170.5,23.47,-0.19,-8.85,0,*78
1498302374.24,13559,19.44,74172.0,23.51,-1.51,-10.41,0,*72
1498302375.47,13560,19.44,74170.5,23.53,-1.43,-10.27,0,*79
1498302376.69,13561,19.38,74168.8,23.57,-1.09,-10.19,0,*7F
1498302377.91,13562,19.44,74170.3,23.61,-1.01,-9.89,0,*40
1498302379.15,13563,19.44,74168.8,23.65,-1.83,-11.33,0,*77
1498302380.35,13564,19.44,74170.3,23.69,-2.91,-12.25,0,*78
1498302381.54,13565,19.44,74172.3,23.69,-1.63,-10.89,0,*73
1498302382.76,13566,19.44,74168.8,23.71,-1.63,-10.93,0,*72
1498302383.98,13567,19.38,74168.8,23.73,-3.39,-13.01,0,*74
1498302385.23,13568,19.44,74170.3,23.71,-2.75,-12.21,0,*73
1498302386.46,13569,19.44,74168.5,23.73,-3.59,-13.19,0,*75
1498302387.68,13570,19.44,74170.3,23.73,-3.43,-13.11,0,*7E
1498302388.89,13571,19.44,74168.0,23.75,-4.09,-13.69,0,*7F
1498302390.14,13572,19.44,74168.0,23.75,-4.37,-14.01,0,*78
1498302391.41,13573,19.44,74170.3,23.71,-5.07,-14.75,0,*7C
1498302392.65,13574,19.44,74170.5,23.71,-5.31,-15.07,0,*7A
1498302393.9,13575,19.44,74168.5,23.71,-6.97,-16.97,0,*7E
1498302395.12,13576,19.44,74168.5,23.67,-8.59,-18.69,0,*79
1498302396.34,13577,19.44,74168.3,23.57,-8.59,-18.55,0,*74
1498302397.59,13578,19.44,74168.3,23.53,-8.51,-18.35,0,*71
1498302398.81,13579,19.44,74172.0,23.49,-7.15,-16.69,0,*73
1498302400.06,13580,19.44,74170.8,23.47,-6.19,-15.85,0,*77
1498302401.31,13581,19.38,74168.8,23.45,-6.73,-16.65,0,*75
1498302402.55,13582,19.44,74172.0,23.41,-7.27,-17.31,0,*72
1498302403.79,13583,19.44,74168.0,23.37,-7.23,-17.35,0,*72
1498302405.04,13584,19.44,74174.5,23.31,-8.07,-18.55,0,*73
1498302406.32,13585,19.44,74168.8,23.25,-7.95,-18.31,0,*71
1498302407.59,13586,19.44,74168.0,23.21,-7.31,-17.79,0,*7B
1498302408.87,13587,19.44,74168.0,23.17,-6.93,-17.45,0,*79
1498302410.12,13588,19.38,74168.5,23.09,-7.01,-17.79,0,*7C
1498302411.34,13589,19.44,74170.8,23.09,-6.01,-16.69,0,*7C
1498302412.57,13590,19.44,74168.5,23.05,-5.43,-16.09,0,*7B
1498302413.76,13591,19.44,74168.3,23.01,-5.97,-16.97,0,*70
1498302414.99,13592,19.44,74168.5,22.95,-6.59,-17.87,0,*7E
1498302416.19,13593,19.38,74164.5,22.89,-7.11,-18.73,0,*7B
1498302417.42,13594,19.44,74172.3,22.83,-7.95,-19.99,0,*7F
1498302418.63,13595,19.44,74172.8,22.77,-6.77,-19.03,0,*7B
1498302419.83,13596,19.44,74170.8,22.71,-6.05,-18.21,0,*7A
1498302421.05,13597,19.44,74168.8,22.67,-6.43,-18.89,0,*7C
1498302422.3,13598,19.44,74170.3,22.61,-5.85,-18.25,0,*7A
1498302423.57,13599,19.44,74168.3,22.57,-4.89,-17.41,0,*7E
1498302424.79,13600,19.44,74168.0,22.55,-4.61,-17.25,0,*7B
1498302425.99,13601,19.44,74170.8,22.51,-4.13,-16.79,0,*73
1498302427.24,13602,19.44,74170.8,22.49,-3.35,-16.17,0,*72
1498302428.44,13603,19.38,74168.3,22.43,-3.07,-16.03,0,*7D
1498302429.64,13604,19.44,74170.3,22.43,-3.03,-16.03,0,*7E
1498302430.87,13605,19.44,74168.5,22.41,-3.11,-16.59,0,*71
1498302432.07,13606,19.38,74166.8,22.39,-2.19,-15.63,0,*7E
1498302433.29,13607,19.44,74170.8,22.37,-1.33,-14.61,0,*79
1498302434.51,13608,19.44,74168.3,22.35,-0.89,-14.29,0,*48
1498302435.78,13609,19.44,74170.0,22.37,-2.71,-16.69,0,*78
1498302437.0,13610,19.44,74170.0,22.35,-2.23,-16.23,0,*7B
1498302438.2,13611,19.44,74174.8,22.31,-1.55,-15.49,0,*73
1498302439.44,13612,19.44,74174.3,22.33,-0.93,-14.89,0,*44
1498302440.71,13613,19.44,74174.5,22.33,-1.39,-15.49,0,*79
1498302441.91,13614,19.44,74172.0,22.33,0.05,-13.69,0,*59
1498302443.16,13615,19.44,74168.5,22.31,1.29,-12.11,0,*5B
1498302444.4,13616,19.44,74174.5,22.37,2.59,-10.53,0,*5E
1498302445.64,13617,19.44,74174.5,22.47,3.37,-9.83,0,*64
1498302446.9,13618,19.44,74170.5,22.49,3.67,-9.15,0,*6F
1498302448.13,13619,19.44,74174.8,22.55,2.81,-10.15,0,*52
1498302449.31,13620,19.44,74168.8,22.63,4.15,-8.41,0,*6E
1498302450.52,13621,19.44,74168.3,22.67,4.01,-8.59,0,*67
1498302451.71,13622,19.44,74174.3,22.75,4.07,-8.37,0,*69
1498302452.98,13623,19.44,74174.3,22.81,3.75,-9.37,0,*60
1498302454.24,13624,19.44,74172.8,22.87,3.11,-9.57,0,*65
1498302455.48,13625,19.44,74174.8,22.95,3.75,-8.63,0,*63
1498302456.68,13626,19.44,74174.5,22.95,4.07,-8.33,0,*67
1498302457.92,13627,19.44,74172.5,23.05,4.93,-7.31,0,*6E
1498302459.15,13628,19.44,74174.5,23.07,3.97,-8.45,0,*6C
1498302460.39,13629,19.44,74172.3,23.11,2.85,-9.93,0,*62
1498302461.65,13630,19.44,74174.5,23.15,3.03,-9.57,0,*69
1498302462.91,13631,19.44,74172.0,23.21,4.63,-7.73,0,*66
1498302464.13,13632,19.44,74172.0,23.25,5.15,-7.23,0,*64
1498302465.4,13633,19.44,74172.8,23.29,4.71,-7.65,0,*68
1498302466.67,13634,19.44,74174.0,23.37,4.31,-8.03,0,*6B
1498302467.85,13635,19.44,74172.5,23.43,3.93,-8.41,0,*60
1498302469.05,13636,19.44,74176.0,23.43,3.79,-8.55,0,*62
1498302470.24,13637,19.44,74170.3,23.49,4.85,-7.19,0,*6A
1498302471.45,13638,19.44,74172.0,23.53,5.49,-6.23,0,*67
1498302472.65,13639,19.38,74168.8,23.61,5.49,-6.23,0,*67
1498302473.83,13640,19.44,74174.5,23.65,3.29,-8.41,0,*67
1498302475.04,13641,19.44,74174.3,23.71,2.91,-8.89,0,*65
1498302476.26,13642,19.44,74172.8,23.69,2.51,-9.19,0,*6B
1498302477.46,13643,19.44,74172.8,23.73,3.85,-7.39,0,*65
1498302478.67,13644,19.44,74174.0,23.77,4.75,-6.39,0,*6F
1498302479.91,13645,19.44,74174.0,23.85,3.89,-7.27,0,*69
1498302481.15,13646,19.44,74174.8,23.87,3.19,-7.99,0,*64
1498302482.36,13647,19.44,74176.8,23.91,2.89,-8.37,0,*61
1498302483.57,13648,19.44,74174.0,23.95,2.09,-9.27,0,*62
1498302484.8,13649,19.44,74176.0,23.95,0.17,-11.59,0,*6E
1498302485.99,13650,19.44,74174.0,23.95,-0.33,-12.03,0,*41
1498302487.23,13651,19.44,74176.3,23.93,0.25,-11.23,0,*6D
1498302488.44,13652,19.44,74174.5,23.95,0.95,-10.23,0,*62
1498302489.66,13653,19.44,74176.3,23.95,0.91,-10.45,0,*67
1498302490.9,13654,19.44,74178.5,23.97,0.25,-11.23,0,*6C
1498302492.13,13655,19.44,74176.8,23.97,1.05,-10.45,0,*5F
1498302493.37,13656,19.44,74174.3,23.99,0.55,-11.29,0,*6D
1498302494.59,13657,19.44,74174.0,23.99,-0.15,-11.85,0,*43
1498302495.78,13658,19.44,74174.8,23.95,-1.29,-13.15,0,*75
1498302496.97,13659,19.44,74176.8,23.95,-1.51,-13.43,0,*78
1498302498.19,13660,19.44,74174.8,23.95,-1.95,-14.23,0,*7B
1498302499.44,13661,19.44,74178.5,23.93,-1.87,-14.15,0,*7A
1498302500.7,13662,19.44,74176.0,23.89,-2.63,-15.11,0,*7E
1498302501.89,13663,19.44,74172.8,23.87,-2.39,-14.69,0,*70
1498302503.12,13664,19.44,74176.0,23.85,-3.35,-15.95,0,*7A
1498302504.37,13665,19.44,74178.0,23.79,-4.01,-16.83,0,*7C
1498302505.64,13666,19.44,74178.3,23.75,-4.89,-17.97,0,*77
1498302506.87,13667,19.44,74176.0,23.73,-2.67,-15.29,0,*71